Regional Weather Roundup
Issued by NWS Upton, NY

Current Version | Previous Version | Text Only | Print | Product List | Glossary On
Versions: 1 2 3 4 5 6 7 8 9 10 11 12 13 14 15 16 17 18 19 20 21 22 23 24 25 26 27 28 29 30 31 32 33 34 35 36 37 38 39 40 41 42 43 44 45 46 47 48 49 50
000 ASUS41 KOKX 290205 RWROKX REGIONAL WEATHER ROUNDUP NATIONAL WEATHER SERVICE NEW YORK NY 900 PM EST WED JAN 28 2015 NOTE: "FAIR" INDICATES FEW OR NO CLOUDS BELOW 12,000 FEET WITH NO SIGNIFICANT WEATHER AND/OR OBSTRUCTIONS TO VISIBILITY. NYZ071-072-176-178-NJZ106-104-290300- NEW YORK CITY METRO AREA CITY SKY/WX TMP DP RH WIND PRES REMARKS CENTRAL PARK CLEAR 28 1 31 N7 30.25R WCI 21 LAGUARDIA APRT CLEAR 29 4 34 N9 30.24R WCI 20 KENNEDY INTL CLEAR 29 7 39 N8 30.25R WCI 21 NEWARK/LIBERTY CLEAR 28 0 29 NW10 30.25R WCI 19 BRNX BOT. GARD N/A N/A N/A N/A NW5 30.25R TETERBORO CLEAR 27 -1 30 NW6 30.24R WCI 20 $$ NYZ177-179-078>081-290300- LONG ISLAND NEW YORK CITY SKY/WX TMP DP RH WIND PRES REMARKS FARMINGDALE CLEAR 25 5 42 NE5 30.23R WCI 19 ISLIP CLEAR 24 5 44 N13 30.20R WCI 12 SHIRLEY CLEAR 25 6 44 N9 30.22R WCI 15 WESTHAMPTON CLEAR 25 6 44 N13 30.21R WCI 14 MONTAUK POINT N/A 27 9 46 NW13 30.19R WCI 16 $$ NYZ052-065-067-290300- HUDSON VALLEY CITY SKY/WX TMP DP RH WIND PRES REMARKS WHITE PLAINS CLEAR 21 2 43 N13 30.20R WCI 9 NEWBURGH NOT AVBL MONTGOMERY CLEAR 12 0 58 CALM 30.23R POUGHKEEPSIE CLEAR 10 4 76 CALM 30.26R HAZE ALBANY CLEAR 14 0 53 N6 30.29R WCI 5 $$ NJZ001-105-106-008-010-013-015-019>022-104-290300- NEW JERSEY CITY SKY/WX TMP DP RH WIND PRES REMARKS NEWARK/LIBERTY CLEAR 28 0 29 NW10 30.25R WCI 19 TETERBORO CLEAR 27 -1 30 NW6 30.24R WCI 20 CALDWELL CLEAR 26 -3 28 N3 30.25R MORRISTOWN CLEAR 25 3 39 N5 30.25R WCI 19 SOMERVILLE CLEAR 26 1 34 NW7 30.25R WCI 18 SUSSEX CLEAR 24 1 36 VRB5 30.24R WCI 18 ANDOVER N/A 22 2 42 VRB6 30.24R WCI 14 TRENTON CLEAR 27 -1 30 NW6 30.25R WCI 20 MILLVILLE CLEAR 27 6 41 NW6 30.27R WCI 20 ATLANTIC CITY CLEAR 24 7 48 NW12 30.25R WCI 13 WRIGHTSTOWN FAIR 24 4 43 NW8 30.23R WCI 15 TOMS RIVER CLEAR 21 5 49 NW8 30.25R WCI 12 BELMAR FAIR 25 1 36 NW8 30.23R WCI 16 $$ PAZ047>061-062-071-290300- EASTERN PENNSYLVANIA CITY SKY/WX TMP DP RH WIND PRES REMARKS PHILADELPHIA CLEAR 30 2 30 N15G22 30.29R WCI 19 ALLENTOWN CLEAR 25 1 35 NW6 30.27R WCI 18 SCRANTON CLEAR 17 3 54 CALM 30.27S $$ CTZ002-004>006-009-010-012-RIZ004-006-007-MAZ004-011-015-290300- SOUTHERN NEW ENGLAND IN CT CITY SKY/WX TMP DP RH WIND PRES REMARKS BRADLEY INTL CLEAR 20 2 45 NW8 30.20R WCI 10 HARTFORD CLEAR 22 4 46 NW7 30.22R WCI 13 DANBURY CLEAR 18 -3 39 CALM 30.23R WTRBRY/OXFORD CLEAR 18 -2 41 N10 30.18R WCI 6 BRIDGEPORT CLEAR 23 2 40 N7 30.22R WCI 15 MERIDEN CLEAR 21 2 43 NW8 30.22R WCI 11 NEW HAVEN CLEAR 23 3 42 N14 30.20R WCI 11 CHESTER FAIR 23 5 46 N14G20 30.17R WCI 11 GROTON CLEAR 22 4 46 N13 30.18R WCI 10 WILLIMANTIC FAIR 19 -1 41 NW5 30.19R WCI 12 IN RI CITY SKY/WX TMP DP RH WIND PRES REMARKS PROVIDENCE CLEAR 21 6 52 NW5 30.17R WCI 15 BLOCK ISLAND FAIR 25 7 46 N13G21 30.15R WCI 13 WESTERLY CLEAR 14 8 77 CALM 30.18R IN MA CITY SKY/WX TMP DP RH WIND PRES REMARKS BOSTON PTCLDY 21 4 47 NW10 30.18R WCI 10 WORCESTER FAIR 17 -3 41 NW13G22 30.10R WCI 4 WESTFIELD CLEAR 20 1 43 N10 30.20R WCI 9 PROVINCETOWN CLOUDY 28 18 64 NW16G24 30.13S WCI 17 NANTUCKET CLOUDY 26 15 63 NW13 30.13R WCI 15 $$ ANZ330-335-338-340-345-350-353-355-290300- COASTAL MARINE OBSERVATIONS STATION/POSITION TIME SKY/WX TEMP WIND PRES VSBY WAVE AIR SEA DIR/SP/G HT/PER (UTC) (F) (DEG/KT/KT) (MB) (MI) (FT/S) NY HARB ENTRANCE 0200 34 40 340/ 17/ 21 1023.0 3/12 4S FIRE IS 0100 37 N/A 3/11 20S FIRE ISLAND 0100 42 1022.1 5/ 5 23SW MTP 0200 N/A 4/ 4 HUDSON CANYON NOT AVBL EXECUTION ROCKS 0200 29 34 330/ 6/ 8 N/A WESTERN LI SOUND 0200 28 350/ 12/ 16 N/A 1 CENTRAL LI SOUND 0200 27 35 340/ 17/ 21 N/A 2/ 3 EASTERN LI SOUND NOT AVBL ROBBINS REEF 0200 29 330/ 9/ 13 1023.0 $$ >>>>>>>>>>>>>>>>>>>>>>>>>>>> KEY <<<<<<<<<<<<<<<<<<<<<<<<<<< > < > SKY/WX - SKY CONDITION/PRESENT WEATHER < > TMP - TEMPERATURE IN FAHRENHEIT < > DP - DEWPOINT IN FAHRENHEIT < > RH - RELATIVE HUMIDITY IN PERCENT < > WIND - DIRECTION AND SPEED IN MPH < > PRES - MEAN SEA LEVEL PRESSURE IN INCHES OF HG < > WCI - WIND CHILL INDEX < > VSB - VISIBILITY IN MILES < > HX - HEAT INDEX < > TC - TEMPERATURE IN CELSIUS < > VRB - VARIABLE WIND DIRECTION < > < >>>>>>>>>>>>>>>>>>>>>>>>>>>> KEY <<<<<<<<<<<<<<<<<<<<<<<<<<<

USA.gov is the U.S. government's official web portal to all federal, state and local government web resources and services.